FW5866 Weather Reports


time (UTC)temp
C
wind
direction
speed
KPH
gust
KPH
rain 1hr
cm
rain 24hr
cm
rain mn
cm
humidity
%
barometer
mb
20260505040049 17 0 0.0 0.0 0.00 0.00 0.00 77 1014.8
20260505034548 17 0 0.0 0.0 0.00 0.00 0.00 77 1014.7
20260505033046 18 0 0.0 0.0 0.00 0.00 0.00 76 1014.6
20260505031556 18 0 0.0 0.0 0.00 0.00 0.00 76 1014.8
20260505030052 18 0 0.0 0.0 0.00 0.00 0.00 76 1014.5
20260505024553 18 0 0.0 0.0 0.00 0.00 0.00 75 1014.6
20260505023051 18 0 0.0 0.0 0.00 0.00 0.00 75 1014.3
20260505021539 18 0 0.0 0.0 0.00 0.00 0.00 75 1014.2
20260505020059 19 0 0.0 0.0 0.00 0.00 0.00 74 1014.4
20260505014552 19 0 0.0 0.0 0.00 0.00 0.00 73 1014.3
20260505013103 19 0 0.0 8.0 0.00 0.00 0.00 73 1014.2
20260505011546 20 0 1.6 8.0 0.00 0.00 0.00 72 1014.3
20260505010110 20 0 0.0 8.0 0.00 0.00 0.00 71 1014.1
20260505004548 20 165 3.2 9.7 0.00 0.00 0.00 70 1014.4
20260505003054 21 160 4.8 8.0 0.00 0.00 0.00 70 1014.4
20260505001553 21 164 3.2 14.5 0.00 0.00 0.00 69 1014.3
20260505000047 22 136 1.6 14.5 0.00 0.00 0.00 68 1014.4
20260504234548 22 158 6.4 16.1 0.00 0.00 0.00 67 1014.5
20260504233106 22 153 1.6 9.7 0.00 0.00 0.00 67 1014.7
20260504231550 22 153 3.2 11.3 0.00 0.00 0.00 67 1015.0
20260504230056 23 161 6.4 17.7 0.00 0.00 0.00 66 1015.1
20260504224551 23 155 4.8 16.1 0.00 0.00 0.00 65 1015.1
20260504223046 23 171 6.4 19.3 0.00 0.00 0.00 65 1015.2
20260504221542 23 184 4.8 17.7 0.00 0.00 0.00 64 1015.3
20260504220050 23 162 6.4 14.5 0.00 0.00 0.00 64 1015.4
20260504214554 24 155 3.2 16.1 0.00 0.00 0.00 63 1015.5
20260504213045 24 150 4.8 20.9 0.00 0.00 0.00 63 1015.7
20260504211546 24 173 6.4 17.7 0.00 0.00 0.00 63 1016.0
20260504210045 24 133 4.8 14.5 0.00 0.00 0.00 62 1015.8
20260504204557 24 157 3.2 9.7 0.00 0.00 0.00 64 1016.2
20260504203103 24 167 3.2 16.1 0.00 0.00 0.00 62 1016.3
20260504201549 24 157 4.8 16.1 0.00 0.00 0.00 64 1016.7
20260504200046 24 147 3.2 17.7 0.00 0.00 0.00 62 1017.0
20260504194544 24 167 9.7 19.3 0.00 0.00 0.00 63 1017.1
20260504193049 24 164 9.7 19.3 0.00 0.00 0.00 64 1017.4
20260504191547 24 133 6.4 16.1 0.00 0.00 0.00 63 1017.7
20260504190106 24 163 3.2 16.1 0.00 0.00 0.00 64 1017.7
20260504184545 24 163 8.0 20.9 0.00 0.00 0.00 64 1017.7
20260504183045 24 242 9.7 19.3 0.00 0.00 0.00 65 1017.9
20260504181550 24 159 9.7 20.9 0.00 0.00 0.00 64 1018.0
20260504180049 24 171 8.0 19.3 0.00 0.00 0.00 64 1018.0
20260504174546 24 169 3.2 17.7 0.00 0.00 0.00 65 1018.1
20260504173058 23 158 6.4 17.7 0.00 0.00 0.00 65 1018.4
20260504171551 23 152 4.8 16.1 0.00 0.00 0.00 66 1018.7
20260504081549 12 0 0.0 0.0 0.00 0.00 0.00 75 1018.8
20260504050103 15 0 0.0 0.0 0.00 0.00 0.00 67 1020.0
20260504044550 15 0 0.0 0.0 0.00 0.00 0.00 67 1019.9
20260504043106 15 0 0.0 0.0 0.00 0.00 0.00 66 1020.2
20260504041547 16 0 0.0 0.0 0.00 0.00 0.00 66 1020.4